This is the latest recevied weather packets stored in our database for station/object KI5MKI. If no packets are shown the sender has not sent any weather packets the latest 10 day(s).
| Time | Temp. | Humidity | Pressure | Rain* | Wind** | Luminosity | Snow |
|---|---|---|---|---|---|---|---|
| 1777563685 | 16.67° C | 78% | 1015.8 hPa | 0 mm | - | 233 W/m² | - |
| 1777563381 | 16.67° C | 77% | 1015.7 hPa | 0 mm | - | 222 W/m² | - |
| 1777563076 | 17.22° C | 78% | 1015.8 hPa | 0 mm | - | 231 W/m² | - |
| 1777562772 | 17.22° C | 77% | 1015.6 hPa | 0 mm | - | 258 W/m² | - |
| 1777562471 | 17.22° C | 78% | 1015.5 hPa | 0 mm | - | 307 W/m² | - |
| 1777562167 | 17.22° C | 78% | 1015.6 hPa | 0 mm | - | 347 W/m² | - |
| 1777561865 | 16.67° C | 79% | 1015.7 hPa | 0 mm | - | 338 W/m² | - |
| 1777561561 | 16.67° C | 80% | 1015.6 hPa | 0 mm | - | 271 W/m² | - |
| 1777561257 | 16.67° C | 81% | 1015.2 hPa | 0 mm | - | 275 W/m² | - |
| 1777560955 | 16.67° C | 82% | 1015.1 hPa | 0 mm | - | 253 W/m² | - |
| 1777560653 | 16.67° C | 81% | 1015.2 hPa | 0 mm | - | 225 W/m² | - |
| 1777560351 | 16.67° C | 82% | 1015.1 hPa | 0 mm | - | 214 W/m² | - |
| 1777560048 | 16.67° C | 82% | 1014.9 hPa | 0 mm | - | 223 W/m² | - |
| 1777559744 | 16.67° C | 82% | 1014.8 hPa | 0 mm | - | 249 W/m² | - |
| 1777559441 | 16.67° C | 82% | 1014.8 hPa | 0 mm | - | 243 W/m² | - |
| 1777559138 | 16.67° C | 83% | 1015 hPa | 0 mm | - | 218 W/m² | - |
| 1777558838 | 16.67° C | 83% | 1015.1 hPa | 0 mm | - | 215 W/m² | - |
| 1777558534 | 16.67° C | 81% | 1014.8 hPa | 0 mm | - | 212 W/m² | - |
| 1777558230 | 16.67° C | 82% | 1015 hPa | 0 mm | - | 229 W/m² | - |
| 1777557926 | 16.67° C | 83% | 1015.1 hPa | 0 mm | - | 242 W/m² | - |
| 1777557624 | 16.11° C | 84% | 1015.1 hPa | 0 mm | - | 214 W/m² | - |
| 1777557320 | 16.11° C | 84% | 1015.1 hPa | 0 mm | - | 185 W/m² | - |
| 1777557016 | 16.11° C | 84% | 1014.7 hPa | 0 mm | - | 185 W/m² | - |
| 1777556712 | 16.11° C | 85% | 1014.9 hPa | 0 mm | - | 168 W/m² | - |
| 1777556409 | 16.11° C | 85% | 1014.8 hPa | 0 mm | - | 164 W/m² | - |
* Rain latest hour (hover to see other rain measurements)
** Current wind speed in m/s (hover to see current wind gust speed)